国际通讯卫星 4A-F2星 (INTELSAT 4A-F2)

导读 | 星芒AI

INTELSAT 4A-F2 是一颗由波音公司制造的通信卫星,于2007年发射,旨在为欧洲、非洲和亚洲提供广播和宽带服务。该卫星运行在地球同步轨道,采用先进的波音 702 平台,具备C波段和Ku波段转发器,支持高带宽传输。INTELSAT 4A-F2 由国际通信卫星组织(Intelsat)运营,广泛用于电视广播、企业通信和政府应用,提升了多个地区的通信能力与覆盖范围。

基本信息
目录编号:
8620
目录名称:
INTELSAT 4A-F2
国际标识:
1976-010A
轨道中心:
EARTH
卫星名称:
国际通讯卫星 4A-F2星
卫星全名:
国际通讯卫星 4A-F2星 (INTELSAT 4A-F2)
卫星状态:
在轨 (已飞行18218 天)
发射日期:
1976-01-29 UTC
国别 :
(ITSO)
星等 :
--
轨道信息
数据来源 国际轨道数据
星历时间: 2025-12-14T10:24:23+0800
1天前
查看轨道信息
半长轴: 42328.819km
偏心率: 0.0008131
轨道倾角: 8.296°
近地点辐角 301.803°
升交点赤经 305.188°
平近点角 76.715°
近地点: 35916.266km
远地点: 35985.102km
周期: 1444.488分钟
每日圈数: 0.996893
详细信息
卫星平台:
HS-353
平衡模式:
自旋稳定
覆盖范围:
全球
运营商:
国际卫星通信公司
运营商所在国:
美国
制造商(研发单位):
休斯公司
制造商所在国:
美国
使用方式:
暂无
卫星简介
从1965年4月至1984年3月,国际通信卫星组织发射了5代、6种不同性能的卫星共计35颗,除6颗卫星因运载火箭和远地点发动机故障而发射失败外,其余29颗卫星均被送到了预定的静止轨道位置。1984年8月前后,国际通信卫星组织利用部署在大西洋、太平洋、印度洋上空的15颗国际通信卫星,为遍布世界各地170多个国家或地区提供电话、电传、电报、电视和数据传输等电信业务;该卫星已退役。
2D轨道图
3D轨道图
轨道高度分析图
轨道倾角分析图
轨道综合分析图
查看轨道综合分析图